Weather History for South Haven, MI

Change the Weather History Date:

Thursday, July 11, 2013

  Actual Average (KBIV) Record (KBIV)
Temperature  
Mean Temperature 65 °F 72 °F  
Max Temperature 74 °F 82 °F 93 °F (2005)
Min Temperature 56 °F 63 °F 44 °F (1978)
Degree Days  
Heating Degree Days 0 0  
Month to date heating degree days 0  
Since 1 June heating degree days 48  
Since 1 July heating degree days 0  
Cooling Degree Days 0 8  
Month to date cooling degree days 82  
Year to date cooling degree days 270  
Since 1 June cooling degree days 228  
Growing Degree Days 15 (Base 50)    
Moisture  
Dew Point 57 °F    
Average Humidity 75    
Maximum Humidity 97    
Minimum Humidity 48    
Precipitation  
Precipitation 0.00 in 0.09 in 1.73 in (2006)
Month to date precipitation 1.06  
Year to date precipitation 17.87  
Sea Level Pressure  
Sea Level Pressure 30.07 in    
Wind  
Wind Speed 3 mph (NNW)    
Max Wind Speed 13 mph    
Max Gust Speed 17 mph    
Visibility 10 miles    
Events      
T = Trace of Precipitation, MM = Missing Value Source: NWS Daily Summary

Daily Weather History Graph

Daily Weather History Graph

Search for Another Location

Airport:

Trip Planner

Search our weather history database for the weather conditions in past years. The results will help you decide how hot, cold, wet, or windy it might be!

Date:

Astronomy

Jul. 11, 2013 Rise Set
Actual Time 6:18 AM EDT 9:22 PM EDT
Civil Twilight 5:44 AM EDT 9:55 PM EDT
Nautical Twilight 5:01 AM EDT 10:39 PM EDT
Astronomical Twilight 4:09 AM EDT 11:30 PM EDT
Moon 9:41 AM EDT (7/11) 10:56 PM EDT (7/11)
Length of Visible Light 16h 11m
Length of Day
15h 03m
Waxing Crescent, 10% of the Moon is Illuminated
Jul 11
Waxing Crescent
Jul 15
First Quarter
Jul 22
Full
Jul 29
Last Quarter
Aug 6
New

Hourly Weather History & Observations

Time (EDT) Temp. Dew Point Humidity Pressure Visibility Wind Dir Wind Speed Gust Speed Precip Events Conditions
12:15 AM 59.4 °F 58.3 °F 96% 30.00 in 10.0 mi Calm Calm - N/A   Clear
12:34 AM 58.6 °F 57.4 °F 96% 29.99 in 10.0 mi Calm Calm - N/A   Clear
12:55 AM 59.0 °F 57.6 °F 95% 30.00 in 10.0 mi Calm Calm - N/A   Clear
1:15 AM 57.6 °F 56.7 °F 97% 30.01 in 10.0 mi Calm Calm - N/A   Clear
1:35 AM 57.7 °F 56.8 °F 97% 30.01 in 10.0 mi Calm Calm - N/A   Clear
1:55 AM 57.4 °F 56.3 °F 96% 30.01 in 10.0 mi Calm Calm - N/A   Clear
2:15 AM 57.4 °F 56.3 °F 96% 30.02 in 10.0 mi Calm Calm - N/A   Clear
2:35 AM 57.2 °F 55.9 °F 96% 30.02 in 10.0 mi Calm Calm - N/A   Scattered Clouds
2:55 AM 57.4 °F 56.3 °F 96% 30.02 in 10.0 mi Calm Calm - N/A   Mostly Cloudy
3:15 AM 57.7 °F 56.5 °F 96% 30.02 in 10.0 mi Calm Calm - N/A   Mostly Cloudy
3:35 AM 58.1 °F 56.8 °F 96% 30.03 in 10.0 mi Calm Calm - N/A   Overcast
3:55 AM 58.6 °F 57.4 °F 96% 30.03 in 10.0 mi Calm Calm - N/A   Overcast
4:15 AM 59.0 °F 57.7 °F 96% 30.03 in 10.0 mi Calm Calm - N/A   Overcast
4:35 AM 58.1 °F 57.2 °F 97% 30.03 in 10.0 mi Calm Calm - N/A   Scattered Clouds
4:55 AM 57.6 °F 56.5 °F 96% 30.03 in 10.0 mi Calm Calm - N/A   Clear
5:15 AM 57.2 °F 56.5 °F 97% 30.04 in 10.0 mi Calm Calm - N/A   Clear
5:35 AM 56.7 °F 55.9 °F 97% 30.04 in 7.0 mi Calm Calm - N/A   Clear
5:55 AM 56.5 °F 55.8 °F 97% 30.05 in 7.0 mi Calm Calm - N/A   Clear
6:15 AM 56.3 °F 55.6 °F 97% 30.05 in 7.0 mi Calm Calm - N/A   Clear
6:35 AM 56.3 °F 55.6 °F 97% 30.05 in 7.0 mi Calm Calm - N/A   Clear
6:54 AM 56.7 °F 55.9 °F 97% 30.06 in 7.0 mi Calm Calm - N/A   Clear
7:15 AM 57.4 °F 56.5 °F 97% 30.06 in 10.0 mi Calm Calm - N/A   Clear
7:35 AM 59.9 °F 58.6 °F 96% 30.07 in 10.0 mi Calm Calm - N/A   Clear
7:54 AM 61.9 °F 60.6 °F 96% 30.07 in 10.0 mi Calm Calm - N/A   Clear
8:15 AM 65.5 °F 62.8 °F 91% 30.07 in 10.0 mi Calm Calm - N/A   Clear
8:35 AM 67.5 °F 62.2 °F 83% 30.08 in 10.0 mi NNE 4.6 mph - N/A   Clear
8:54 AM 68.5 °F 62.1 °F 80% 30.08 in 10.0 mi Calm Calm - N/A   Clear
9:15 AM 70.2 °F 59.9 °F 70% 30.09 in 10.0 mi NNE 3.5 mph - N/A   Clear
9:35 AM 71.4 °F 56.7 °F 60% 30.09 in 10.0 mi NNE 3.5 mph - N/A   Clear
9:54 AM 72.5 °F 55.8 °F 56% 30.09 in 10.0 mi NNE 5.8 mph - N/A   Clear
10:15 AM 73.2 °F 54.1 °F 51% 30.09 in 10.0 mi North 5.8 mph - N/A   Clear
10:35 AM 73.4 °F 55.4 °F 53% 30.09 in 10.0 mi North 3.5 mph - N/A   Clear
10:55 AM 73.8 °F 55.4 °F 53% 30.09 in 10.0 mi North 6.9 mph - N/A   Clear
11:15 AM 74.1 °F 54.0 °F 49% 30.09 in 10.0 mi NNW 6.9 mph - N/A   Clear
11:35 AM 73.9 °F 53.2 °F 48% 30.10 in 10.0 mi NNW 8.1 mph - N/A   Clear
11:55 AM 74.3 °F 54.0 °F 49% 30.10 in 10.0 mi NW 11.5 mph - N/A   Clear
12:15 PM 74.5 °F 54.9 °F 50% 30.10 in 10.0 mi NW 8.1 mph - N/A   Clear
12:35 PM 74.5 °F 55.0 °F 51% 30.10 in 10.0 mi NNW 8.1 mph - N/A   Clear
12:55 PM 73.4 °F 56.7 °F 56% 30.10 in 10.0 mi NNW 9.2 mph 16.1 mph N/A   Clear
1:15 PM 73.2 °F 57.6 °F 58% 30.10 in 10.0 mi North 10.4 mph 17.3 mph N/A   Clear
1:35 PM 72.9 °F 57.2 °F 58% 30.10 in 10.0 mi North 11.5 mph - N/A   Clear
1:55 PM 73.6 °F 56.3 °F 55% 30.10 in 10.0 mi NW 9.2 mph - N/A   Clear
2:15 PM 73.8 °F 54.3 °F 51% 30.10 in 10.0 mi NW 9.2 mph - N/A   Clear
2:34 PM 74.7 °F 56.1 °F 52% 30.10 in 10.0 mi WNW 10.4 mph - N/A   Clear
2:55 PM 73.8 °F 55.6 °F 53% 30.09 in 10.0 mi NW 11.5 mph 16.1 mph N/A   Clear
3:15 PM 73.4 °F 58.1 °F 59% 30.10 in 10.0 mi NW 8.1 mph 16.1 mph N/A   Clear
3:34 PM 72.3 °F 58.6 °F 62% 30.10 in 10.0 mi North 8.1 mph - N/A   Clear
3:55 PM 72.5 °F 60.1 °F 65% 30.10 in 10.0 mi NW 10.4 mph 16.1 mph N/A   Clear
4:15 PM 72.5 °F 60.6 °F 66% 30.10 in 10.0 mi WNW 8.1 mph - N/A   Clear
4:34 PM 71.8 °F 61.2 °F 69% 30.10 in 10.0 mi WNW 10.4 mph - N/A   Clear
4:55 PM 72.1 °F 58.8 °F 63% 30.09 in 10.0 mi NW 10.4 mph - N/A   Clear
5:15 PM 71.8 °F 56.8 °F 59% 30.09 in 10.0 mi NNW 12.7 mph 17.3 mph N/A   Clear
5:35 PM 72.0 °F 57.2 °F 60% 30.09 in 10.0 mi NW 10.4 mph - N/A   Clear
5:55 PM 71.2 °F 56.3 °F 59% 30.09 in 10.0 mi NW 8.1 mph 16.1 mph N/A   Clear
6:15 PM 71.2 °F 56.5 °F 60% 30.09 in 10.0 mi NNW 11.5 mph - N/A   Clear
6:35 PM 71.1 °F 57.0 °F 61% 30.08 in 10.0 mi NW 6.9 mph - N/A   Clear
6:55 PM 71.1 °F 56.7 °F 60% 30.08 in 10.0 mi NNW 9.2 mph - N/A   Clear
7:15 PM 70.5 °F 57.0 °F 62% 30.08 in 10.0 mi NNW 10.4 mph - N/A   Clear
7:35 PM 70.3 °F 57.7 °F 64% 30.08 in 10.0 mi NNW 5.8 mph - N/A   Clear
7:55 PM 69.4 °F 57.6 °F 66% 30.08 in 10.0 mi NNW 9.2 mph - N/A   Clear
8:15 PM 68.7 °F 57.6 °F 67% 30.07 in 10.0 mi NW 9.2 mph - N/A   Clear
8:35 PM 68.0 °F 57.4 °F 69% 30.07 in 10.0 mi NNW 6.9 mph - N/A   Clear
8:55 PM 67.3 °F 57.4 °F 70% 30.07 in 10.0 mi NNW 5.8 mph - N/A   Clear
9:14 PM 66.2 °F 56.3 °F 70% 30.07 in 10.0 mi NW 4.6 mph - N/A   Clear
9:35 PM 65.3 °F 56.5 °F 73% 30.07 in 10.0 mi Calm Calm - N/A   Clear
9:55 PM 64.9 °F 56.3 °F 74% 30.06 in 10.0 mi Calm Calm - N/A   Clear
10:14 PM 63.9 °F 56.3 °F 76% 30.07 in 10.0 mi Calm Calm - N/A   Clear
10:35 PM 61.2 °F 57.4 °F 87% 30.07 in 10.0 mi Calm Calm - N/A   Clear
10:55 PM 60.6 °F 57.2 °F 88% 30.07 in 10.0 mi Calm Calm - N/A   Clear
11:14 PM 59.4 °F 56.7 °F 91% 30.08 in 10.0 mi Calm Calm - N/A   Clear
11:35 PM 58.8 °F 56.8 °F 93% 30.07 in 10.0 mi Calm Calm - N/A   Clear
11:55 PM 58.1 °F 56.7 °F 95% 30.07 in 10.0 mi Calm Calm - N/A   Clear